KZ-11 R/B

Last updated on Sun Apr 12 2026 00:02:07 GMT+0000 (Coordinated Universal Time)

1 68205U 26052H 26101.53967711 .00015887 19954-5 24303-3 0 9992 2 68205 97.3390 175.5339 0542406 287.3867 66.8738 14.67949669 3876

Satellite not in orbit

KZ-11 R/B